• En España
  • Lista de países
  • Para 7 días
  • Temperatura del agua
  • Mapa Satelital
  • El tiempo en el mapa
  • Informadores
  • user-avatar
    Iniciar sesión

    Tiempo cada hora Elbasan

    Hoy, 18 Octubre, Miércoles

    Tiempo Temperatura Precipitaciones Viento Presión Humedad
    00:00 +19°C° 0 mm 1 mps 740 mmHg 53%
    01:00 +19°C° 0 mm 1 mps 740 mmHg 54%
    02:00 +19°C° 0 mm 1 mps 740 mmHg 54%
    03:00 +19°C° 0 mm 1 mps 739 mmHg 54%
    04:00 +17°C° 0 mm 2 mps 739 mmHg 54%
    05:00 +18°C° 0 mm 2 mps 739 mmHg 53%
    06:00 +18°C° 0 mm 2 mps 739 mmHg 53%
    07:00 +19°C° 0 mm 2 mps 739 mmHg 51%
    08:00 +21°C° 0 mm 2 mps 739 mmHg 44%
    09:00 +25°C° 0 mm 1 mps 739 mmHg 37%
    10:00 +27°C° 0 mm 1 mps 739 mmHg 30%
    11:00 +27°C° 0 mm 1 mps 739 mmHg 29%
    12:00 +28°C° 0 mm 2 mps 738 mmHg 28%
    13:00 +28°C° 0 mm 2 mps 738 mmHg 27%
    14:00 +27°C° 0 mm 2 mps 738 mmHg 32%
    15:00 +26°C° 0 mm 2 mps 737 mmHg 37%
    16:00 +25°C° 0 mm 1 mps 737 mmHg 42%
    17:00 +23°C° 0 mm 1 mps 737 mmHg 47%
    18:00 +22°C° 0 mm 1 mps 737 mmHg 52%
    19:00 +18°C° 0 mm 0 mps 737 mmHg 57%
    20:00 +18°C° 0 mm 0 mps 737 mmHg 57%
    21:00 +19°C° 0 mm 1 mps 738 mmHg 57%
    22:00 +19°C° 0 mm 1 mps 738 mmHg 56%
    23:00 +19°C° 0 mm 1 mps 738 mmHg 56%

    Mañana, 19 Octubre, Jueves

    Tiempo Temperatura Precipitaciones Viento Presión Humedad
    00:00 +18°C° 0 mm 1 mps 738 mmHg 56%
    01:00 +18°C° 0 mm 1 mps 737 mmHg 56%
    02:00 +18°C° 0 mm 1 mps 737 mmHg 56%
    03:00 +18°C° 0 mm 1 mps 737 mmHg 56%
    04:00 +16°C° 0 mm 1 mps 737 mmHg 57%
    05:00 +18°C° 0 mm 1 mps 737 mmHg 56%
    06:00 +18°C° 0 mm 1 mps 737 mmHg 56%
    07:00 +19°C° 0 mm 1 mps 737 mmHg 55%
    08:00 +21°C° 0 mm 1 mps 737 mmHg 50%
    09:00 +23°C° 0 mm 1 mps 737 mmHg 45%
    10:00 +25°C° 0 mm 1 mps 738 mmHg 40%
    11:00 +25°C° 0 mm 2 mps 737 mmHg 38%
    12:00 +26°C° 0 mm 2 mps 737 mmHg 37%
    13:00 +26°C° 0 mm 3 mps 737 mmHg 36%
    14:00 +25°C° 0 mm 2 mps 737 mmHg 40%
    15:00 +25°C° 0 mm 2 mps 737 mmHg 45%
    16:00 +24°C° 0 mm 2 mps 736 mmHg 49%
    17:00 +21°C° 0 mm 2 mps 737 mmHg 57%
    18:00 +20°C° 0 mm 1 mps 737 mmHg 65%
    19:00 +18°C° 0 mm 1 mps 737 mmHg 73%
    20:00 +18°C° 0 mm 1 mps 737 mmHg 74%
    21:00 +18°C° 0 mm 1 mps 737 mmHg 74%
    22:00 +16°C° 0 mm 1 mps 737 mmHg 75%
    23:00 +16°C° 0 mm 1 mps 737 mmHg 75%

    Pasado mañana, 20 Octubre, Viernes

    Tiempo Temperatura Precipitaciones Viento Presión Humedad
    00:00 +16°C° 0 mm 1 mps 737 mmHg 75%
    01:00 +15°C° 0 mm 1 mps 737 mmHg 75%
    02:00 +15°C° 0 mm 1 mps 737 mmHg 75%
    03:00 +15°C° 0 mm 1 mps 737 mmHg 74%
    04:00 +15°C° 0 mm 1 mps 737 mmHg 74%
    05:00 +15°C° 0 mm 1 mps 737 mmHg 71%
    06:00 +16°C° 0 mm 1 mps 737 mmHg 69%
    07:00 +16°C° 0 mm 1 mps 737 mmHg 66%
    08:00 +19°C° 0 mm 1 mps 737 mmHg 58%
    09:00 +22°C° 0 mm 1 mps 737 mmHg 50%
    10:00 +22°C° 0 mm 0 mps 738 mmHg 41%
    11:00 +24°C° 0 mm 1 mps 737 mmHg 40%
    12:00 +25°C° 0 mm 2 mps 737 mmHg 38%
    13:00 +25°C° 0 mm 2 mps 737 mmHg 37%
    14:00 +25°C° 0 mm 2 mps 737 mmHg 42%
    15:00 +24°C° 0 mm 2 mps 737 mmHg 46%
    16:00 +23°C° 0 mm 2 mps 737 mmHg 51%
    17:00 +20°C° 0 mm 2 mps 737 mmHg 58%
    18:00 +19°C° 0 mm 1 mps 737 mmHg 65%
    19:00 +18°C° 0 mm 1 mps 737 mmHg 73%
    20:00 +16°C° 0 mm 1 mps 738 mmHg 73%
    21:00 +16°C° 0 mm 1 mps 738 mmHg 73%
    22:00 +16°C° 0 mm 1 mps 738 mmHg 74%
    23:00 +16°C° 0 mm 1 mps 738 mmHg 73%

    21 Octubre, Sábado

    Tiempo Temperatura Precipitaciones Viento Presión Humedad
    00:00 +15°C° 0 mm 1 mps 738 mmHg 72%
    01:00 +15°C° 0 mm 1 mps 738 mmHg 72%
    02:00 +15°C° 0 mm 1 mps 738 mmHg 71%
    03:00 +15°C° 0 mm 1 mps 737 mmHg 71%
    04:00 +15°C° 0 mm 1 mps 737 mmHg 70%
    05:00 +15°C° 0 mm 1 mps 737 mmHg 68%
    06:00 +16°C° 0 mm 1 mps 738 mmHg 66%
    07:00 +16°C° 0 mm 1 mps 738 mmHg 64%
    08:00 +19°C° 0 mm 1 mps 738 mmHg 56%
    09:00 +22°C° 0 mm 1 mps 738 mmHg 49%
    10:00 +24°C° 0 mm 1 mps 738 mmHg 42%
    11:00 +24°C° 0 mm 2 mps 738 mmHg 40%
    12:00 +25°C° 0 mm 2 mps 737 mmHg 39%
    13:00 +25°C° 0 mm 2 mps 737 mmHg 38%
    14:00 +25°C° 0 mm 2 mps 737 mmHg 42%
    15:00 +24°C° 0 mm 2 mps 737 mmHg 46%
    16:00 +23°C° 0 mm 2 mps 737 mmHg 50%
    17:00 +20°C° 0 mm 2 mps 737 mmHg 56%
    18:00 +19°C° 0 mm 1 mps 737 mmHg 62%
    19:00 +18°C° 0 mm 1 mps 737 mmHg 69%
    20:00 +16°C° 0 mm 1 mps 737 mmHg 68%
    21:00 +16°C° 0 mm 1 mps 737 mmHg 67%
    22:00 +16°C° 0 mm 1 mps 737 mmHg 67%
    23:00 +16°C° 0 mm 1 mps 737 mmHg 66%

    22 Octubre, Domingo

    Tiempo Temperatura Precipitaciones Viento Presión Humedad
    00:00 +16°C° 0 mm 1 mps 737 mmHg 65%
    01:00 +15°C° 0 mm 1 mps 737 mmHg 63%
    02:00 +15°C° 0 mm 1 mps 737 mmHg 63%
    03:00 +15°C° 0 mm 1 mps 737 mmHg 63%
    04:00 +15°C° 0 mm 1 mps 737 mmHg 63%
    05:00 +15°C° 0 mm 1 mps 737 mmHg 61%
    06:00 +16°C° 0 mm 1 mps 737 mmHg 60%
    07:00 +16°C° 0 mm 1 mps 737 mmHg 58%
    08:00 +19°C° 0 mm 1 mps 737 mmHg 52%
    09:00 +22°C° 0 mm 1 mps 737 mmHg 46%
    10:00 +24°C° 0 mm 1 mps 737 mmHg 39%
    11:00 +24°C° 0 mm 2 mps 736 mmHg 39%
    12:00 +25°C° 0 mm 2 mps 735 mmHg 38%
    13:00 +25°C° 0 mm 2 mps 735 mmHg 38%
    14:00 +24°C° 0 mm 2 mps 735 mmHg 43%
    15:00 +23°C° 0 mm 2 mps 734 mmHg 48%
    16:00 +21°C° 0 mm 2 mps 734 mmHg 53%
    17:00 +21°C° 0 mm 1 mps 734 mmHg 60%
    18:00 +19°C° 0 mm 1 mps 734 mmHg 67%
    19:00 +18°C° 0 mm 1 mps 734 mmHg 74%
    20:00 +18°C° 0 mm 1 mps 734 mmHg 75%
    21:00 +16°C° 0 mm 1 mps 734 mmHg 76%
    22:00 +16°C° 0 mm 2 mps 734 mmHg 76%
    23:00 +16°C° 0 mm 2 mps 733 mmHg 76%

    23 Octubre, Lunes

    Tiempo Temperatura Precipitaciones Viento Presión Humedad
    00:00 +16°C° 0 mm 2 mps 733 mmHg 75%
    01:00 +16°C° 0 mm 2 mps 732 mmHg 75%
    02:00 +16°C° 0,1 mm 2 mps 732 mmHg 75%
    03:00 +16°C° 0,1 mm 2 mps 731 mmHg 76%
    04:00 +15°C° 0,1 mm 2 mps 731 mmHg 77%
    05:00 +16°C° 0,6 mm 2 mps 731 mmHg 77%
    06:00 +16°C° 0,6 mm 2 mps 730 mmHg 76%
    07:00 +16°C° 0,6 mm 2 mps 730 mmHg 76%
    08:00 +15°C° 3,8 mm 2 mps 730 mmHg 80%
    09:00 +15°C° 3,8 mm 2 mps 730 mmHg 83%
    10:00 +14°C° 3,8 mm 2 mps 729 mmHg 86%
    11:00 +14°C° 1,4 mm 2 mps 729 mmHg 84%
    12:00 +15°C° 1,4 mm 2 mps 729 mmHg 82%
    13:00 +15°C° 1,4 mm 2 mps 728 mmHg 80%
    14:00 +15°C° 0,9 mm 2 mps 728 mmHg 80%
    15:00 +15°C° 0,9 mm 2 mps 728 mmHg 79%
    16:00 +15°C° 0,9 mm 1 mps 727 mmHg 79%
    17:00 +15°C° 0,3 mm 2 mps 727 mmHg 81%
    18:00 +14°C° 0,3 mm 2 mps 727 mmHg 83%
    19:00 +13°C° 0,3 mm 2 mps 727 mmHg 85%
    20:00 +13°C° 0,1 mm 2 mps 727 mmHg 85%
    21:00 +13°C° 0,1 mm 2 mps 727 mmHg 85%
    22:00 +13°C° 0,1 mm 2 mps 728 mmHg 85%
    23:00 +13°C° 0 mm 2 mps 727 mmHg 85%
    Mostrar más